| time (UTC) | temp F | wind direction | speed knots | gust knots | rain 1hr in | rain 24hr in | rain mn in | humidity % | barometer mb |
| 20260503021713 | 72 | 33 | 13.9 | 19.1 | 0.00 | 0.00 | 0.00 | 55 | 1020.3 |
| 20260503021212 | 72 | 36 | 14.8 | 20.9 | 0.00 | 0.00 | 0.00 | 56 | 1020.4 |
| 20260503020713 | 72 | 28 | 17.4 | 20.9 | 0.00 | 0.00 | 0.00 | 56 | 1020.4 |
| 20260503020212 | 72 | 36 | 13.9 | 20.0 | 0.00 | 0.00 | 0.00 | 56 | 1020.7 |
| 20260503015713 | 72 | 27 | 14.8 | 19.1 | 0.00 | 0.00 | 0.00 | 56 | 1020.8 |
| 20260503015212 | 73 | 24 | 14.8 | 19.1 | 0.00 | 0.00 | 0.00 | 56 | 1020.9 |
| 20260503014712 | 73 | 22 | 12.2 | 19.1 | 0.00 | 0.00 | 0.00 | 55 | 1020.9 |
| 20260503014213 | 72 | 22 | 15.6 | 19.1 | 0.00 | 0.00 | 0.00 | 54 | 1021.1 |
| 20260503013712 | 73 | 28 | 13.9 | 20.0 | 0.00 | 0.00 | 0.00 | 55 | 1021.0 |
| 20260503013212 | 73 | 28 | 14.8 | 20.9 | 0.00 | 0.00 | 0.00 | 56 | 1021.1 |
| 20260503012713 | 73 | 22 | 11.3 | 18.2 | 0.00 | 0.00 | 0.00 | 55 | 1021.3 |
| 20260503011213 | 72 | 24 | 11.3 | 19.1 | 0.00 | 0.00 | 0.00 | 59 | 1021.5 |
| 20260503010213 | 72 | 17 | 12.2 | 20.0 | 0.00 | 0.00 | 0.00 | 60 | 1021.9 |
| 20260503005712 | 71 | 24 | 14.8 | 20.9 | 0.00 | 0.00 | 0.00 | 60 | 1021.8 |
| 20260503005212 | 71 | 29 | 13.0 | 19.1 | 0.00 | 0.00 | 0.00 | 60 | 1022.0 |
| 20260503004713 | 71 | 30 | 15.6 | 20.9 | 0.00 | 0.00 | 0.00 | 60 | 1021.8 |
| 20260503004212 | 71 | 29 | 14.8 | 22.6 | 0.00 | 0.00 | 0.00 | 60 | 1021.9 |
| 20260503003712 | 71 | 19 | 12.2 | 20.0 | 0.00 | 0.00 | 0.00 | 61 | 1022.0 |
| 20260503003213 | 72 | 13 | 10.4 | 17.4 | 0.00 | 0.00 | 0.00 | 60 | 1022.1 |
| 20260503002712 | 72 | 18 | 15.6 | 21.7 | 0.00 | 0.00 | 0.00 | 60 | 1022.0 |
| 20260503002212 | 72 | 23 | 13.9 | 20.9 | 0.00 | 0.00 | 0.00 | 61 | 1022.3 |
| 20260503001713 | 71 | 26 | 11.3 | 20.0 | 0.00 | 0.00 | 0.00 | 61 | 1022.3 |
| 20260503000713 | 71 | 2 | 11.3 | 17.4 | 0.00 | 0.00 | 0.00 | 63 | 1022.1 |
| 20260503000213 | 70 | 7 | 11.3 | 19.1 | 0.00 | 0.00 | 0.00 | 63 | 1022.3 |
| 20260502235712 | 70 | 12 | 9.6 | 13.0 | 0.00 | 0.00 | 0.00 | 65 | 1022.4 |
| 20260502235212 | 70 | 17 | 10.4 | 14.8 | 0.00 | 0.00 | 0.00 | 65 | 1022.2 |
| 20260502234713 | 70 | 15 | 5.2 | 8.7 | 0.00 | 0.00 | 0.00 | 67 | 1022.4 |
| 20260502233712 | 70 | 338 | 7.0 | 10.4 | 0.00 | 0.01 | 0.00 | 68 | 1022.7 |
| 20260502233212 | 70 | 346 | 6.1 | 10.4 | 0.00 | 0.01 | 0.00 | 68 | 1022.7 |
| 20260502232713 | 70 | 347 | 5.2 | 10.4 | 0.00 | 0.01 | 0.00 | 67 | 1022.3 |
| 20260502232213 | 70 | 329 | 5.2 | 8.7 | 0.00 | 0.01 | 0.00 | 68 | 1022.7 |
| 20260502231712 | 70 | 327 | 6.1 | 8.7 | 0.00 | 0.01 | 0.00 | 68 | 1022.7 |
| 20260502231213 | 70 | 340 | 6.1 | 10.4 | 0.00 | 0.01 | 0.00 | 70 | 1022.5 |
| 20260502225712 | 69 | 318 | 7.0 | 8.7 | 0.00 | 0.01 | 0.00 | 71 | 1022.7 |
| 20260502225212 | 68 | 319 | 6.1 | 8.7 | 0.00 | 0.01 | 0.00 | 72 | 1022.9 |
| 20260502224712 | 68 | 323 | 5.2 | 7.8 | 0.00 | 0.01 | 0.00 | 72 | 1022.8 |
| 20260502224212 | 68 | 341 | 5.2 | 7.8 | 0.00 | 0.01 | 0.00 | 72 | 1022.8 |
| 20260502223712 | 68 | 333 | 6.1 | 7.8 | 0.00 | 0.01 | 0.00 | 73 | 1022.8 |
| 20260502223212 | 68 | 335 | 6.1 | 8.7 | 0.00 | 0.01 | 0.00 | 73 | 1022.8 |
| 20260502222712 | 67 | 323 | 6.1 | 7.8 | 0.00 | 0.01 | 0.00 | 74 | 1022.7 |
| 20260502222212 | 67 | 318 | 5.2 | 7.0 | 0.00 | 0.01 | 0.00 | 75 | 1022.6 |
| 20260502221713 | 67 | 335 | 5.2 | 7.8 | 0.00 | 0.01 | 0.00 | 75 | 1022.7 |
| 20260502221212 | 66 | 331 | 5.2 | 7.8 | 0.00 | 0.01 | 0.00 | 76 | 1022.5 |
| 20260502220712 | 66 | 332 | 6.1 | 7.8 | 0.00 | 0.01 | 0.00 | 76 | 1022.5 |
| 20260502220212 | 66 | 328 | 6.1 | 7.0 | 0.00 | 0.01 | 0.00 | 76 | 1022.7 |
| 20260502215712 | 66 | 328 | 6.1 | 7.8 | 0.00 | 0.01 | 0.00 | 76 | 1022.6 |
| 20260502215212 | 66 | 327 | 7.0 | 7.8 | 0.00 | 0.01 | 0.00 | 76 | 1022.4 |
| 20260502214712 | 66 | 327 | 7.0 | 7.8 | 0.00 | 0.01 | 0.00 | 76 | 1022.4 |
| 20260502214212 | 66 | 325 | 6.1 | 7.8 | 0.00 | 0.01 | 0.00 | 76 | 1022.3 |
| 20260502213712 | 65 | 330 | 6.1 | 7.0 | 0.00 | 0.01 | 0.00 | 77 | 1022.3 |
| 20260502213212 | 65 | 329 | 5.2 | 7.0 | 0.00 | 0.01 | 0.00 | 77 | 1022.2 |
| 20260502212712 | 65 | 332 | 5.2 | 7.0 | 0.00 | 0.01 | 0.00 | 77 | 1022.3 |
| 20260502212212 | 65 | 327 | 7.0 | 7.8 | 0.00 | 0.01 | 0.00 | 77 | 1022.3 |
| 20260502211712 | 65 | 332 | 6.1 | 7.8 | 0.00 | 0.01 | 0.00 | 77 | 1022.2 |
| 20260502210712 | 65 | 328 | 7.0 | 7.8 | 0.00 | 0.01 | 0.00 | 78 | 1022.2 |
| 20260502210212 | 65 | 323 | 7.0 | 7.8 | 0.00 | 0.01 | 0.00 | 78 | 1022.1 |
| 20260502205712 | 65 | 330 | 6.1 | 7.0 | 0.00 | 0.01 | 0.00 | 78 | 1021.9 |
| 20260502205212 | 65 | 328 | 7.0 | 7.8 | 0.00 | 0.01 | 0.00 | 78 | 1022.1 |
| 20260502204712 | 65 | 331 | 6.1 | 7.8 | 0.00 | 0.01 | 0.00 | 77 | 1021.9 |
| 20260502204212 | 65 | 335 | 7.0 | 7.8 | 0.00 | 0.01 | 0.00 | 77 | 1022.0 |
| 20260502203712 | 65 | 335 | 7.0 | 8.7 | 0.00 | 0.01 | 0.00 | 77 | 1022.0 |
| 20260502203213 | 65 | 338 | 7.0 | 8.7 | 0.00 | 0.01 | 0.00 | 77 | 1022.0 |
| 20260502202712 | 65 | 339 | 7.0 | 8.7 | 0.00 | 0.01 | 0.00 | 77 | 1021.9 |
| 20260502202212 | 65 | 333 | 7.0 | 8.7 | 0.00 | 0.01 | 0.00 | 77 | 1022.1 |
| 20260502201712 | 65 | 335 | 7.0 | 8.7 | 0.00 | 0.01 | 0.00 | 77 | 1022.1 |
| 20260502200712 | 66 | 336 | 7.8 | 8.7 | 0.00 | 0.01 | 0.00 | 77 | 1022.0 |
| 20260502200211 | 66 | 333 | 7.0 | 8.7 | 0.00 | 0.01 | 0.00 | 77 | 1022.0 |
| 20260502195712 | 66 | 333 | 7.8 | 10.4 | 0.00 | 0.01 | 0.00 | 77 | 1022.1 |
| 20260502195212 | 66 | 332 | 7.8 | 8.7 | 0.00 | 0.01 | 0.00 | 77 | 1021.8 |
| 20260502194712 | 66 | 332 | 7.0 | 8.7 | 0.00 | 0.01 | 0.00 | 77 | 1021.9 |
| 20260502194212 | 66 | 329 | 7.8 | 8.7 | 0.00 | 0.01 | 0.00 | 77 | 1022.0 |
| 20260502193712 | 66 | 330 | 7.0 | 8.7 | 0.00 | 0.01 | 0.00 | 77 | 1021.8 |
| 20260502193212 | 66 | 327 | 7.8 | 8.7 | 0.00 | 0.01 | 0.00 | 77 | 1021.7 |
| 20260502192713 | 65 | 328 | 7.8 | 8.7 | 0.00 | 0.01 | 0.00 | 78 | 1021.8 |
| 20260502192212 | 65 | 318 | 7.8 | 10.4 | 0.00 | 0.01 | 0.00 | 78 | 1021.9 |
| 20260502191712 | 65 | 313 | 7.8 | 8.7 | 0.00 | 0.01 | 0.00 | 78 | 1021.8 |
| 20260502191212 | 65 | 307 | 7.8 | 8.7 | 0.00 | 0.01 | 0.00 | 78 | 1022.0 |
| 20260502190712 | 65 | 314 | 7.0 | 7.8 | 0.00 | 0.01 | 0.00 | 78 | 1021.7 |
| 20260502185712 | 65 | 319 | 7.0 | 8.7 | 0.00 | 0.01 | 0.00 | 78 | 1021.7 |
| 20260502185212 | 65 | 321 | 7.0 | 7.8 | 0.00 | 0.01 | 0.00 | 78 | 1021.8 |
| 20260502184712 | 65 | 323 | 7.0 | 8.7 | 0.00 | 0.01 | 0.00 | 78 | 1021.8 |
| 20260502184212 | 65 | 315 | 7.8 | 10.4 | 0.00 | 0.01 | 0.00 | 78 | 1021.8 |
| 20260502183712 | 65 | 310 | 7.8 | 10.4 | 0.00 | 0.01 | 0.00 | 78 | 1021.9 |
| 20260502182712 | 66 | 317 | 7.0 | 7.8 | 0.00 | 0.01 | 0.00 | 78 | 1021.7 |
| 20260502182212 | 66 | 315 | 6.1 | 7.0 | 0.00 | 0.01 | 0.00 | 77 | 1021.8 |
| 20260502181712 | 66 | 322 | 5.2 | 7.0 | 0.00 | 0.01 | 0.00 | 77 | 1021.8 |
| 20260502181212 | 66 | 343 | 6.1 | 7.8 | 0.00 | 0.01 | 0.00 | 77 | 1021.7 |
| 20260502180712 | 66 | 339 | 6.1 | 7.8 | 0.00 | 0.01 | 0.00 | 77 | 1021.7 |
| 20260502180212 | 66 | 342 | 6.1 | 8.7 | 0.00 | 0.01 | 0.00 | 77 | 1021.8 |
| 20260502170212 | 66 | 313 | 7.8 | 10.4 | 0.00 | 0.02 | 0.00 | 78 | 1021.9 |
| 20260502164212 | 66 | 306 | 7.8 | 8.7 | 0.00 | 0.02 | 0.00 | 77 | 1022.1 |
| 20260502163711 | 66 | 313 | 7.0 | 8.7 | 0.00 | 0.02 | 0.00 | 77 | 1022.0 |
| 20260502163212 | 66 | 323 | 7.0 | 7.8 | 0.00 | 0.02 | 0.00 | 77 | 1022.0 |
| 20260502162711 | 66 | 324 | 7.0 | 8.7 | 0.00 | 0.02 | 0.00 | 77 | 1022.2 |
| 20260502162211 | 66 | 333 | 6.1 | 7.8 | 0.00 | 0.02 | 0.00 | 77 | 1022.1 |
| 20260502161711 | 66 | 326 | 7.0 | 8.7 | 0.00 | 0.02 | 0.00 | 77 | 1022.3 |
| 20260502161212 | 66 | 317 | 7.8 | 10.4 | 0.00 | 0.02 | 0.00 | 77 | 1022.5 |
| 20260502160712 | 66 | 314 | 7.8 | 8.7 | 0.00 | 0.02 | 0.00 | 76 | 1022.5 |
| 20260502160212 | 66 | 308 | 7.8 | 10.4 | 0.00 | 0.02 | 0.00 | 76 | 1022.6 |
| 20260502151712 | 69 | 351 | 7.0 | 10.4 | 0.00 | 0.02 | 0.00 | 72 | 1022.8 |
| 20260502151212 | 69 | 355 | 7.0 | 10.4 | 0.00 | 0.02 | 0.00 | 72 | 1022.7 |
| 20260502150711 | 69 | 0 | 6.1 | 11.3 | 0.00 | 0.02 | 0.00 | 72 | 1022.6 |
| 20260502150212 | 69 | 5 | 8.7 | 13.0 | 0.00 | 0.02 | 0.00 | 72 | 1022.8 |
| 20260502130712 | 70 | 8 | 8.7 | 13.0 | 0.00 | 0.02 | 0.02 | 69 | 1023.2 |
| 20260502130212 | 70 | 8 | 10.4 | 17.4 | 0.00 | 0.02 | 0.02 | 70 | 1023.3 |
| 20260502123711 | 70 | 19 | 11.3 | 17.4 | 0.00 | 0.02 | 0.02 | 69 | 1023.4 |
| 20260502123211 | 70 | 16 | 8.7 | 13.9 | 0.00 | 0.02 | 0.02 | 69 | 1023.4 |
| 20260502122711 | 70 | 14 | 12.2 | 15.6 | 0.00 | 0.02 | 0.02 | 70 | 1023.4 |
| 20260502121212 | 70 | 2 | 7.8 | 11.3 | 0.00 | 0.02 | 0.02 | 69 | 1024.0 |
| 20260502120711 | 70 | 5 | 7.8 | 12.2 | 0.00 | 0.02 | 0.02 | 68 | 1023.9 |
| 20260502120211 | 70 | 7 | 9.6 | 13.0 | 0.00 | 0.02 | 0.02 | 68 | 1024.0 |
| 20260502115211 | 70 | 14 | 8.7 | 13.0 | 0.00 | 0.02 | 0.02 | 68 | 1023.8 |
| 20260502114711 | 70 | 11 | 10.4 | 14.8 | 0.00 | 0.02 | 0.02 | 68 | 1023.7 |
| 20260502113711 | 70 | 18 | 9.6 | 14.8 | 0.00 | 0.02 | 0.02 | 69 | 1023.8 |
| 20260502112711 | 70 | 17 | 10.4 | 14.8 | 0.00 | 0.02 | 0.02 | 70 | 1023.5 |
| 20260502111711 | 70 | 18 | 8.7 | 13.0 | 0.00 | 0.02 | 0.02 | 70 | 1023.8 |
| 20260502111211 | 70 | 11 | 8.7 | 13.0 | 0.00 | 0.02 | 0.02 | 70 | 1023.8 |
| 20260502110711 | 70 | 7 | 8.7 | 13.0 | 0.00 | 0.02 | 0.02 | 70 | 1023.6 |
| 20260502110211 | 70 | 13 | 9.6 | 13.9 | 0.00 | 0.02 | 0.02 | 69 | 1023.9 |
| 20260502105711 | 70 | 3 | 8.7 | 13.0 | 0.00 | 0.02 | 0.02 | 70 | 1023.9 |
| 20260502105211 | 70 | 10 | 8.7 | 12.2 | 0.00 | 0.02 | 0.02 | 70 | 1023.8 |
| 20260502104711 | 70 | 11 | 8.7 | 12.2 | 0.00 | 0.02 | 0.02 | 70 | 1023.9 |
| 20260502104211 | 70 | 3 | 10.4 | 13.0 | 0.00 | 0.02 | 0.02 | 70 | 1024.0 |
| 20260502103711 | 70 | 2 | 8.7 | 12.2 | 0.00 | 0.02 | 0.02 | 70 | 1024.2 |
| 20260502103211 | 70 | 2 | 7.8 | 10.4 | 0.00 | 0.02 | 0.02 | 70 | 1024.0 |
| 20260502102710 | 70 | 3 | 6.1 | 11.3 | 0.00 | 0.02 | 0.02 | 70 | 1023.9 |
| 20260502102211 | 70 | 10 | 8.7 | 13.9 | 0.00 | 0.02 | 0.02 | 69 | 1023.6 |
| 20260502101711 | 70 | 14 | 9.6 | 12.2 | 0.00 | 0.02 | 0.02 | 70 | 1023.5 |
| 20260502100711 | 70 | 17 | 10.4 | 14.8 | 0.00 | 0.02 | 0.02 | 70 | 1023.4 |
| 20260502091211 | 70 | 18 | 9.6 | 17.4 | 0.00 | 0.02 | 0.02 | 71 | 1023.3 |
| 20260502090711 | 70 | 14 | 7.8 | 11.3 | 0.00 | 0.02 | 0.02 | 71 | 1023.3 |
| 20260502090211 | 70 | 16 | 8.7 | 11.3 | 0.00 | 0.02 | 0.02 | 71 | 1023.6 |
| 20260502071211 | 70 | 36 | 11.3 | 13.9 | 0.00 | 0.02 | 0.02 | 75 | 1022.6 |
| 20260502070710 | 70 | 33 | 11.3 | 14.8 | 0.00 | 0.02 | 0.02 | 74 | 1022.8 |
| 20260502070210 | 70 | 28 | 11.3 | 17.4 | 0.00 | 0.02 | 0.02 | 74 | 1022.6 |
| 20260502065711 | 70 | 34 | 11.3 | 17.4 | 0.00 | 0.02 | 0.02 | 74 | 1022.8 |
| 20260502065210 | 70 | 32 | 12.2 | 15.6 | 0.00 | 0.02 | 0.02 | 75 | 1022.8 |
| 20260502064710 | 70 | 35 | 13.9 | 15.6 | 0.00 | 0.02 | 0.02 | 75 | 1022.7 |
| 20260502063711 | 70 | 36 | 15.6 | 19.1 | 0.00 | 0.02 | 0.02 | 75 | 1022.7 |
| 20260502063211 | 70 | 34 | 16.5 | 20.0 | 0.00 | 0.02 | 0.02 | 75 | 1022.8 |
| 20260502062710 | 70 | 37 | 16.5 | 19.1 | 0.00 | 0.02 | 0.02 | 74 | 1022.6 |
| 20260502062210 | 70 | 36 | 13.9 | 19.1 | 0.00 | 0.02 | 0.02 | 75 | 1022.9 |
| 20260502061710 | 71 | 35 | 14.8 | 18.2 | 0.00 | 0.02 | 0.02 | 74 | 1022.8 |
| 20260502061211 | 71 | 35 | 13.9 | 17.4 | 0.00 | 0.02 | 0.02 | 75 | 1022.7 |
| 20260502060710 | 71 | 33 | 10.4 | 15.6 | 0.00 | 0.02 | 0.02 | 75 | 1022.7 |
| 20260502060210 | 71 | 34 | 15.6 | 18.2 | 0.00 | 0.02 | 0.02 | 74 | 1022.8 |
| 20260502055710 | 71 | 30 | 14.8 | 20.9 | 0.00 | 0.02 | 0.02 | 73 | 1022.8 |
| 20260502055210 | 71 | 29 | 13.9 | 18.2 | 0.00 | 0.02 | 0.02 | 73 | 1023.1 |
| 20260502054710 | 71 | 36 | 17.4 | 20.0 | 0.00 | 0.02 | 0.02 | 73 | 1022.8 |
| 20260502054210 | 71 | 39 | 15.6 | 18.2 | 0.00 | 0.02 | 0.02 | 73 | 1022.6 |
| 20260502052711 | 71 | 32 | 17.4 | 20.9 | 0.00 | 0.02 | 0.02 | 71 | 1022.8 |
| 20260502052211 | 71 | 29 | 14.8 | 20.9 | 0.00 | 0.02 | 0.02 | 71 | 1022.8 |
| 20260502051711 | 71 | 31 | 15.6 | 20.0 | 0.00 | 0.02 | 0.02 | 70 | 1022.9 |
| 20260502051211 | 71 | 33 | 14.8 | 20.0 | 0.00 | 0.02 | 0.02 | 70 | 1023.1 |
| 20260502050710 | 71 | 18 | 13.9 | 20.0 | 0.00 | 0.02 | 0.02 | 71 | 1022.9 |
| 20260502050210 | 71 | 35 | 17.4 | 22.6 | 0.00 | 0.02 | 0.02 | 71 | 1023.0 |
| 20260502045210 | 71 | 35 | 15.6 | 19.1 | 0.00 | 0.02 | 0.02 | 70 | 1022.8 |
| 20260502044710 | 72 | 36 | 15.6 | 20.0 | 0.00 | 0.02 | 0.02 | 70 | 1022.9 |
| 20260502044211 | 72 | 34 | 13.9 | 19.1 | 0.00 | 0.02 | 0.02 | 68 | 1022.8 |
| 20260502043711 | 72 | 31 | 12.2 | 17.4 | 0.00 | 0.02 | 0.02 | 66 | 1022.8 |
| 20260502043211 | 72 | 15 | 15.6 | 20.9 | 0.00 | 0.02 | 0.02 | 66 | 1022.7 |
| 20260502042210 | 72 | 27 | 8.7 | 14.8 | 0.00 | 0.02 | 0.02 | 66 | 1022.9 |
| 20260502041711 | 73 | 28 | 12.2 | 19.1 | 0.00 | 0.02 | 0.02 | 65 | 1022.9 |
| 20260502041210 | 73 | 23 | 11.3 | 18.2 | 0.00 | 0.02 | 0.02 | 65 | 1022.9 |
| 20260502040710 | 72 | 12 | 15.6 | 22.6 | 0.00 | 0.02 | 0.02 | 65 | 1022.9 |
| 20260502040211 | 72 | 29 | 13.9 | 20.9 | 0.00 | 0.02 | 0.02 | 67 | 1022.9 |
| 20260502035710 | 73 | 11 | 11.3 | 18.2 | 0.00 | 0.02 | 0.02 | 67 | 1023.0 |
| 20260502035211 | 72 | 12 | 10.4 | 18.2 | 0.00 | 0.02 | 0.02 | 67 | 1022.8 |
| 20260502034210 | 72 | 22 | 13.0 | 20.0 | 0.00 | 0.02 | 0.02 | 66 | 1022.9 |
| 20260502033711 | 72 | 14 | 13.0 | 20.0 | 0.00 | 0.02 | 0.02 | 67 | 1023.0 |
| 20260502032711 | 72 | 21 | 10.4 | 20.9 | 0.00 | 0.02 | 0.02 | 68 | 1023.2 |
| 20260502032210 | 72 | 25 | 13.0 | 20.9 | 0.00 | 0.02 | 0.02 | 68 | 1023.2 |
| 20260502031711 | 72 | 20 | 16.5 | 20.9 | 0.00 | 0.02 | 0.02 | 68 | 1023.3 |
| 20260502031211 | 72 | 24 | 10.4 | 17.4 | 0.00 | 0.02 | 0.02 | 69 | 1023.4 |
| 20260502030710 | 71 | 27 | 15.6 | 20.9 | 0.00 | 0.02 | 0.02 | 68 | 1023.4 |
| 20260502030210 | 71 | 19 | 14.8 | 22.6 | 0.00 | 0.02 | 0.02 | 68 | 1023.8 |
| 20260502025710 | 71 | 23 | 15.6 | 22.6 | 0.00 | 0.02 | 0.02 | 69 | 1023.8 |
| 20260502025211 | 71 | 16 | 14.8 | 20.0 | 0.00 | 0.02 | 0.02 | 69 | 1023.8 |
| 20260502024711 | 71 | 18 | 13.0 | 19.1 | 0.00 | 0.02 | 0.02 | 69 | 1023.8 |
| 20260502023710 | 71 | 10 | 12.2 | 17.4 | 0.00 | 0.02 | 0.02 | 70 | 1023.9 |
| 20260502022710 | 71 | 33 | 13.9 | 18.2 | 0.00 | 0.02 | 0.02 | 71 | 1024.3 |
| 20260502022210 | 71 | 30 | 13.0 | 17.4 | 0.00 | 0.02 | 0.02 | 71 | 1024.4 |